Regional Weather Roundup
Issued by NWS Jackson, KY

Home | Current Version | Previous Version | Text Only | Print | Product List | Glossary On
Versions: 1 2 3 4 5 6 7 8 9 10 11 12 13 14 15 16 17 18 19 20 21 22 23 24 25 26 27 28 29 30 31 32 33 34 35 36 37 38 39 40 41 42 43 44 45 46 47 48 49 50
000
ASUS43 KJKL 240110
RWRJKL

EAST KENTUCKY HOURLY WEATHER ROUNDUP
NATIONAL WEATHER SERVICE JACKSON KY
900 PM EDT WED MAY 23 2018

NOTE: "FAIR" INDICATES FEW OR NO CLOUDS BELOW 12,000 FEET WITH
NO SIGNIFICANT WEATHER AND/OR OBSTRUCTIONS TO VISIBILITY.

* THESE REPORTS ARE NOT UNDER NWS QUALITY CONTROL AND MAY NOT
  REPORT WEATHER SUCH AS PRECIPITATION AND FOG.

KYZ079-080-083-085-087-088-110-112-115-119-120-240200
...EASTERN KENTUCKY...

CITY           SKY/WX    TMP DP  RH WIND       PRES   REMARKS
JACKSON          N/A     71  63  75 CALM      30.13R
LONDON           N/A     75  63  66 NE3       30.11R
SOMERSET*        N/A     73  61  64 MISG      30.11R
MONTICELLO*      N/A     75  65  70 NE14      30.12R
WILLIAMSBURG*    N/A     73  64  73 CALM      30.11R
MIDDLESBORO*     N/A     73  64  74 CALM      30.10R
HARLAN APT*      N/A     72  63  73 CALM      30.12R
PIKE CO APT*     N/A     70  61  73 NE6       30.13S
BIG SANDY APT*   N/A     70  63  77 NE6       30.13S
MOREHEAD APT*    N/A     70  57  64 NE5       30.14S
$$

KYZ035-036-041-042-044-050-067-078-099-240200
...CENTRAL KENTUCKY...

CITY           SKY/WX    TMP DP  RH WIND       PRES   REMARKS
MT STERLING*     N/A     72  59  64 CALM      30.14S
FLEMING/MASON*   N/A     71  58  64 CALM      30.15R
DANVILLE*        N/A     70  61  73 CALM      30.13R
LEXINGTON        N/A     71  59  65 NE7       30.13R
FRANKFORT        N/A     75  59  57 NE6       30.11R
LOUISVILLE     MOCLDY    80  57  45 E7        30.10R
LEBANON*         N/A     75  63  64 CALM      30.11R
GLASGOW*         N/A     76  63  62 CALM      30.09R
BOWLING GREEN    N/A     81  65  58 N3        30.08R
$$

KYZ091>093-OHZ055-061-077-WVZ005-015-034-035-042-240200
...SOUTHERN OHIO/WEST VIRGINIA...

CITY           SKY/WX    TMP DP  RH WIND       PRES   REMARKS
COVINGTON        N/A     73  54  51 E8        30.13R
COLUMBUS         N/A     71  50  47 E5        30.15R
DAYTON           N/A     68  56  65 NE7       30.17R
WILMINGTON       N/A     69  59  70 E5        30.15R
HUNTINGTON       N/A     71  57  61 NE6       30.13R
CHARLESTON       N/A     68  59  73 N5        30.14R
PINEVILLE*       N/A     65  62  90 MISG      30.19R
BECKLEY          N/A     66  57  72 NE6       30.18R
BLUEFIELD        N/A     67  57  70 N3        30.18S
LOGAN CO APT*    N/A     68  59  73 CALM      30.14S
$$

VAZ002-007-008-TNZ017-027-036-066-071-240200
...SOUTHWEST VIRGINIA/EAST TENNESSEE...

CITY           SKY/WX    TMP DP  RH WIND       PRES   REMARKS
WISE*            N/A     68  61  77 N6        30.19R
JONESVILLE*      N/A     75  63  64 CALM      30.12R
ABINGDON*        N/A     75  62  63 NE3       30.14R
BRISTOL          N/A     72  67  84 CALM      30.10R
MORRISTOWN*    CLEAR     77  63  61 N5        30.08R
SEVIERVILLE*   CLEAR     75  66  73 CALM      30.06S
KNOXVILLE      MOCLDY    78  67  68 NE3       30.06R
LAFOLLETTE*    CLEAR     72  63  73 CALM      30.13R
OAK RIDGE        N/A     80  64  58 CALM      30.08R
CROSSVILLE       N/A     74  63  68 N3        30.13R
NASHVILLE      MOCLDY    79  63  57 N8        30.08R
$$

...KEY TO REMARKS...
VSB - VISIBILITY IN MILES
WCI - WIND CHILL INDEX
HX  - HEAT INDEX

$$



USA.gov is the U.S. government's official web portal to all federal, state and local government web resources and services.